Weather Roundup
Issued by NWS Chicago, IL

Home | Current Version | Previous Version | Graphics & Text | Print | Product List | Glossary On
Versions: 1 2 3 4 5 6 7 8 9 10 11 12 13 14 15 16 17 18 19 20 21 22 23 24 25 26 27 28 29 30 31 32 33 34 35 36 37 38 39 40 41 42 43 44 45 46 47 48 49 50
000
NZUS59 KLOT 070203
HRRLOT

CHICAGO AREA WEATHER ROUNDUP
NATIONAL WEATHER SERVICE CHICAGO/ROMEOVILLE IL
800 PM CST SAT FEB 06 2016

NOTE: "FAIR" INDICATES FEW OR NO CLOUDS BELOW 12,000 FEET WITH NO
SIGNIFICANT WEATHER AND/OR OBSTRUCTIONS TO VISIBILITY.

* THESE STATIONS ARE NOT UNDER NWS QUALITY CONTROL. THEY ALSO MAY NOT
  REPORT WEATHER SUCH AS PRECIPITATION OR FOG.

ILZ005-006-012>014-019>023-070300-
NORTHEAST ILLINOIS

CITY           SKY/WX    TMP DP  RH WIND       PRES   REMARKS
OHARE          CLEAR     33  27  78 S7        30.11F WCI  27
MIDWAY         CLEAR     37  28  70 S6        30.12F
AURORA         CLEAR     34  27  75 S7        30.12F WCI  28
LANSING*       CLEAR     30  27  89 S7        30.14F WCI  23
WAUKEGAN       CLEAR     30  26  85 SW5       30.10F WCI  25
DUPAGE AIRPORT CLEAR     31  25  78 S5        30.11F WCI  26
WHEELING       CLEAR     31  26  82 S6        30.12F WCI  25
$$

WIZ051-052-058>065-066-070>072-070300-
SOUTHEAST WISCONSIN

CITY           SKY/WX    TMP DP  RH WIND       PRES   REMARKS
MILWAUKEE      PTCLDY    30  25  81 S6        30.09F WCI  24
KENOSHA*       CLEAR     28  24  85 SW6       30.10F WCI  22
RACINE*        CLEAR     28  24  85 S5        30.11F WCI  23
BURLINGTON     CLEAR     26  24  92 SW3       30.09F
WAUKESHA       CLEAR     27  25  93 SW3       30.08F
$$

INZ001>003-010>013-019-020-070300-
NORTHWEST INDIANA

CITY           SKY/WX    TMP DP  RH WIND       PRES   REMARKS
GARY*          CLEAR     36  28  75 SE8       30.15F
MICHIGAN CITY* NOT AVBL
RENSSELAER*    NOT AVBL
VALPARAISO     CLEAR     34  27  75 S5        30.15F WCI  30
$$

LMZ740>746-070300-
SOUTHERN LAKE MICHIGAN

STATION/POSITION TIME  SKY/WX   TEMP WIND        PRES    VSBY
                                AIR  DIR/SP/G
                 (UTC)          (F)  (DEG/KT/KT) (MB)    (MI)
HARRISON CRIB    0100            40  180/ 11/ 11   N/A
BURNHAM HARBOR   0200            38  190/  2/  6   N/A
CALUMET HARBOR   0100            37  160/  3/  4 1020.2F
BURNS HARBOR     0100            37  190/  7/  9 1022.0S
MICHIGAN CITY    0100            38  160/  9/ 11   N/A
$$

ABBREVIATIONS USED IN REMARKS
   TC - TEMPERATURE IN CELSIUS
  WCI - WIND CHILL INDEX
   HX - HEAT INDEX
  VSB - VISIBILITY
$$



USA.gov is the U.S. government's official web portal to all federal, state and local government web resources and services.